Regional Weather Roundup
Issued by NWS

Home | Current Version | Previous Version | Text Only | Print | Product List | Glossary Off
Versions: 1 2 3 4 5 6 7 8 9 10 11 12 13 14 15 16 17 18 19 20 21 22 23 24 25 26 27 28 29 30 31 32 33 34 35 36 37 38 39 40 41 42 43 44 45 46 47 48 49 50

000
ASUS43 KMKX 161121
RWRWI

WISCONSIN REGIONAL WEATHER ROUNDUP
NATIONAL WEATHER SERVICE MILWAUKEE/SULLIVAN WI
600 AM CDT WED AUG 16 2017

NOTE: "FAIR" INDICATES FEW OR NO CLOUDS BELOW 12,000 FEET WITH NO
SIGNIFICANT WEATHER AND/OR OBSTRUCTIONS TO VISIBILITY.

WIZ001-002-006>008-014>016-023>028-161200-
NORTHWEST WISCONSIN

CITY           SKY/WX    TMP DP  RH WIND       PRES   REMARKS
SUPERIOR ARPT    N/A     61  59  92 NE7       30.01S
ASHLAND        CLOUDY    49  49 100 CALM      30.03S FOG
HAYWARD        CLOUDY    59  55  87 SE5       30.02F
SIREN          CLOUDY    62  57  84 SE5       29.98S
CUMBERLAND     CLOUDY    59  55  88 E6        30.00S
RICE LAKE      CLOUDY    61  58  90 E3        30.01F
CHETEK         CLOUDY    61  58  92 SE7       30.00F
LADYSMITH      PTCLDY    58  56  94 E5        30.05R
EAU CLAIRE     LGT RAIN  62  59  90 SE8       29.99F
MENOMONIE      DRIZZLE   61  61 100 E5        30.00S
NEW RICHMOND   LGT RAIN  61  61  98 E6        29.96F
OSCEOLA        LGT RAIN  62  62 100 E5        29.99S
$$

WIZ003>005-009-010-017-018-161200-
NORTH CENTRAL WISCONSIN

CITY           SKY/WX    TMP DP  RH WIND       PRES   REMARKS
MANITOWISH WTR CLOUDY    56  56 100 SE6       30.06R FOG
ARBOR VITAE    CLOUDY    59  58  96 SE3       30.07R FOG
WOODRUFF       CLOUDY    59  58  96 SE3       30.07R FOG
RHINELANDER    FOG       57  57 100 SE5       30.08R VSB 1
EAGLE RIVER    PTCLDY    55  54  95 CALM      30.08R
LAND O LAKES   CLOUDY    54  54 100 CALM      30.10R
PHILLIPS       CLOUDY    54  54 100 E3        30.05R
TOMAHAWK         N/A     55  55  97 CALM      30.07S FOG
MEDFORD        CLOUDY    57  56  97 E3        30.04S FOG
MERRILL        CLOUDY    54  54 100 CALM      30.07S FOG
$$

WIZ029-030-035-036-043>047-161200-
CENTRAL WISCONSIN

CITY           SKY/WX    TMP DP  RH WIND       PRES   REMARKS
WAUSAU         CLOUDY    57  57 100 E6        30.05S FOG
MOSINEE        FOG       57  57 100 E6        30.07S VSB 1/2
MARSHFIELD     CLOUDY    61  57  87 E5        30.04R
STEVENS POINT  CLOUDY    57  57 100 CALM      30.06S FOG
WAUPACA        CLOUDY    62  61  97 CALM      30.06R
WAUTOMA        CLOUDY    60  59  96 NE3       30.05R
WISC RAPIDS    CLOUDY    61  59  93 E3        30.06R
CAMP DOUGLAS   PTCLDY    62  60  95 E6        30.02R
$$

WIZ011>013-019>022-031-037>040-048>050-161200-
NORTHEAST WISCONSIN

CITY           SKY/WX    TMP DP  RH WIND       PRES   REMARKS
ANTIGO         MOCLDY    57  57 100 E5        30.08S
SHAWANO        CLOUDY    63  60  89 NE6       30.07R
OCONTO         CLOUDY    57  56  97 N6        30.06S
STURGEON BAY   CLOUDY    61  60  97 CALM      30.07R
GREEN BAY      CLOUDY    63  63 100 E5        30.05S
MANITOWOC      CLOUDY    59  57  94 N3        30.05S FOG
APPLETON       PTCLDY    63  61  94 E6        30.04S
CLINTONVILLE   CLOUDY    59  57  94 CALM      30.06R FOG
OSHKOSH        MOCLDY    63  60  90 CALM      30.04S
$$

WIZ032>034-041-042-053>061-161200-
SOUTHWEST WISCONSIN

CITY           SKY/WX    TMP DP  RH WIND       PRES   REMARKS
LA CROSSE      CLOUDY    67  61  81 SE7       29.98S
SPARTA         CLOUDY    63  59  87 E5        30.01S
VIROQUA        CLOUDY    62  60  94 E9        30.01R
BOSCOBEL       CLOUDY    64  60  87 NE3       30.00R
PRAIRIE DU CHI PTCLDY    64  57  80 E3        29.97S
PLATTEVILLE    CLOUDY    62  62  98 E8        30.00R
$$

WIZ056-057-062-063-064-067-068-161200-
SOUTH CENTRAL WISCONSIN

CITY           SKY/WX    TMP DP  RH WIND       PRES   REMARKS
REEDSBURG      CLOUDY    63  61  95 E5        30.01F
BARABOO/DELLS  CLOUDY    61  58  89 E3        30.03S
LONE ROCK      CLOUDY    63  61  93 SE6       30.00S
MINERAL POINT  CLOUDY    64  59  82 E8        30.00S
MADISON        CLOUDY    62  60  93 E3        30.02R
MIDDLETON      CLOUDY    64  62  91 CALM      30.02S
WATERTOWN      CLOUDY    58  58 100 CALM      30.02S
MONROE         PTCLDY    61  59  94 NE6       30.01S
JANESVILLE     CLEAR     61  61 100 NE3       30.00F
$$

WIZ051-052-058>065-066-070>072-161200-
SOUTHEAST WISCONSIN

CITY           SKY/WX    TMP DP  RH WIND       PRES   REMARKS
MILWAUKEE      PTCLDY    63  59  87 NW5       30.03R
WAUKESHA       PTCLDY    55  55 100 CALM      30.04R
MILWAUKEE/TIMM CLEAR     59  55  88 CALM      30.04S
RACINE         CLEAR     60  58  92 CALM      30.04R
KENOSHA        PTCLDY    61  58  90 CALM      30.03R
FOND DU LAC    CLOUDY    61  57  87 E3        30.04S
SHEBOYGAN      CLEAR     56  56 100 CALM      30.04S
WEST BEND        N/A     54  54 100 CALM      30.04S FOG
JUNEAU         PTCLDY    58  57  97 NE3       30.04S
$$

LSZ147-162-161200-
LAKE SUPERIOR

STATION/POSITION TIME  TEMP    WIND        PRES    WAVE
                       AIR SEA DIR/SP/G            HT/PER
                 (UTC) (F)     (DEG/KT/KT) (MB)    (FT/S)
W MID LAKE BUOY  1050   60 60  100/ 10/ 12 1017.0F   1/ 3
DEVILS ISLAND    1100   62     110/  7/  9 1017.1R
SAXON HARBOR     1040   52     190/  4/  5 1016.6R
$$

LMZ867-665-643>646-161200-
LAKE MICHIGAN

STATION/POSITION TIME  TEMP    WIND        PRES    WAVE
                       AIR SEA DIR/SP/G            HT/PER
                 (UTC) (F)     (DEG/KT/KT) (MB)    (FT/S)
S GREEN BAY BUOY 1100   66 71   90/  8/ 12 1017.4
N MID LAKE BUOY  1050   65 67   90/  6/  8 1018.5R   1/ 4
NORTHPORT PIER   1040   63      30/  6/  9 1017.9R
KEWAUNEE LAKESHO 1100   66      50/  3/  5 1016.7
SHEBOYGAN LAKESH 1100   67      40/  8/  9 1016.9R
PORT WASHINGTON  1030   63     340/  3/  6 1017.6R
ATWATER BUOY     1009   69 71   30/  8/ 10 1016.8R
MILWAUKEE LAKESH 1100   65     330/  3/  4   N/A
S MID LAKE BUOY  1050   70 71   60/  4/  4 1016.4R   1/ 4
KENOSHA   LAKESH 1100   67     340/  2/  4 1016.6
$$

TC  - TEMPERATURE IN CELSIUS
VSB - VISIBILITY IN STATUTE MILES
WCI - WIND CHILL INDEX
HX  - HEAT INDEX





USA.gov is the U.S. government's official web portal to all federal, state and local government web resources and services.